{"data":{"norad_id":67418,"epoch":"2026-09-19T22:25:03.870048Z","epoch_age_seconds":124234,"freshness":"FRESH","line1":"1 67418U 26005Q   26262.93407257  .00012964  00000+0  47958-3 0  9991","line2":"2 67418  43.0017 220.9928 0000618 313.9538  46.1263 15.27594697 38404","mean_motion":15.27594697,"eccentricity":6.18e-5,"inclination_deg":43.0017,"raan_deg":220.9928,"arg_perigee_deg":313.9538,"mean_anomaly_deg":46.1263,"bstar":0.00047958,"rev_number":3840,"period_min":94.265841772558,"perigee_km":482.58106970621,"apogee_km":483.42910686833,"semimajor_km":6861.1420882873,"source":"CELESTRAK","updated_at":"2026-09-20T09:00:43.521900Z"}}